Weather History for Hayward, WI

Change the Weather History Date:

Monday, May 14, 2012

  Actual Average Record
Temperature  
Mean Temperature 60 °F -  
Max Temperature 82 °F 72 °F 91 °F (2007)
Min Temperature 39 °F 43 °F 28 °F (2004)
Degree Days  
Heating Degree Days 4    
Growing Degree Days 10 (Base 50)    
Moisture  
Dew Point 40 °F    
Average Humidity 46    
Maximum Humidity 86    
Minimum Humidity 20    
Precipitation  
Precipitation 0.00 in - - ()
Sea Level Pressure  
Sea Level Pressure 29.93 in    
Wind  
Wind Speed 3 mph (SSW)    
Max Wind Speed 10 mph    
Max Gust Speed 18 mph    
Visibility 10 miles    
Events Rain    
Averages and records for this station are not official NWS values.
T = Trace of Precipitation, MM = Missing Value Source: NWS Daily Summary

Daily Weather History Graph

Daily Weather History Graph

Search for Another Location

Airport:

Trip Planner

Search our weather history database for the weather conditions in past years. The results will help you decide how hot, cold, wet, or windy it might be!

Date:

Astronomy

May. 14, 2012 Rise Set
Actual Time 5:34 AM CDT 8:30 PM CDT
Civil Twilight 4:59 AM CDT 9:06 PM CDT
Nautical Twilight 4:14 AM CDT 9:51 PM CDT
Astronomical Twilight 3:21 AM CDT 10:45 PM CDT
Moon 2:27 AM CDT (5/14) 2:34 PM CDT (5/14)
Length of Visible Light 16h 06m
Length of Day
14h 56m
Waning Crescent, 32% of the Moon is Illuminated
May 14
Waning Crescent
May 20
New
May 28
First Quarter
Jun 4
Full
Jun 11
Last Quarter

Hourly Weather History & Observations

Time (CDT) Temp. Windchill Dew Point Humidity Pressure Visibility Wind Dir Wind Speed Gust Speed Precip Events Conditions
12:53 AM 46.0 °F - 37.0 °F 71% 30.02 in 10.0 mi Calm Calm - N/A   Clear
1:53 AM 45.0 °F - 37.0 °F 74% 30.01 in 10.0 mi Calm Calm - N/A   Clear
2:53 AM 42.1 °F - 37.9 °F 85% 30.01 in 10.0 mi Calm Calm - N/A   Clear
3:53 AM 42.1 °F - 37.0 °F 82% 30.01 in 10.0 mi Calm Calm - N/A   Clear
4:53 AM 39.9 °F 37.8 °F 36.0 °F 86% 30.00 in 10.0 mi South 3.5 mph - N/A   Clear
5:53 AM 45.0 °F 43.5 °F 39.0 °F 80% 29.99 in 10.0 mi SSW 3.5 mph - N/A   Clear
6:53 AM 55.0 °F - 43.0 °F 64% 29.99 in 10.0 mi Calm Calm - 0.00 in Rain Light Rain
7:53 AM 61.0 °F - 43.0 °F 52% 29.99 in 10.0 mi SSW 4.6 mph - 0.00 in   Clear
8:53 AM 66.0 °F - 43.0 °F 43% 29.99 in 10.0 mi Variable 4.6 mph - N/A   Clear
9:53 AM 69.1 °F - 43.0 °F 39% 29.99 in 10.0 mi Variable 4.6 mph - N/A   Clear
10:53 AM 72.0 °F - 43.0 °F 35% 29.97 in 10.0 mi Variable 3.5 mph - N/A   Clear
11:53 AM 75.0 °F - 43.0 °F 32% 29.96 in 10.0 mi Variable 6.9 mph - N/A   Clear
12:53 PM 79.0 °F - 43.0 °F 28% 29.94 in 10.0 mi Variable 4.6 mph - N/A   Clear
1:53 PM 80.1 °F - 39.0 °F 23% 29.93 in 10.0 mi Variable 6.9 mph - N/A   Clear
2:53 PM 81.0 °F - 37.9 °F 21% 29.91 in 10.0 mi West 10.4 mph - N/A   Partly Cloudy
3:53 PM 82.9 °F - 37.9 °F 20% 29.89 in 10.0 mi Variable 4.6 mph - N/A   Scattered Clouds
4:53 PM 82.0 °F - 39.0 °F 22% 29.89 in 10.0 mi Variable 5.8 mph 18.4 mph N/A   Clear
5:53 PM 79.0 °F - 37.9 °F 23% 29.87 in 10.0 mi WNW 4.6 mph - N/A   Partly Cloudy
6:53 PM 79.0 °F - 39.0 °F 24% 29.85 in 10.0 mi Variable 6.9 mph - N/A   Clear
7:53 PM 75.0 °F - 41.0 °F 29% 29.85 in 10.0 mi SSW 3.5 mph - N/A   Clear
8:53 PM 64.0 °F - 45.0 °F 50% 29.83 in 10.0 mi South 3.5 mph - N/A   Clear
10:53 PM 68.0 °F - 43.0 °F 40% 29.80 in 10.0 mi South 4.6 mph - N/A   Scattered Clouds
11:53 PM 64.0 °F - 43.0 °F 46% 29.78 in 10.0 mi South 3.5 mph - N/A   Clear